SCP
0 0 0 0 0 0 0 -0 0 0 0 0 0 0 0 0 0 0 0 0 0 0 0 0 0 0 0 0 0 0 0 0 0 0 0 0 0 0 0 0 0 0 0 0
0 0 0 0 0 0 0 0 0 -0 0 0 0 0 0 0 0 0 0 0 0 0 0 0 0 0 0 0 0 0 0 0 0 0 0 0 0 0 0 0 0 0 0 0
0 0 0 0 0 0 0 0 0 0 0 -0 -0 -0 0 0 0 0 0 0 0 0 0 0 0 0 0 0 0 0 0 0 0 0 0 0 0 0 0 0 0 0 0 0
0 0 0 -0 0 0 0 0 0 0 0 0 0 -0 0 0 0 0 0 0 0 0 0 0 0 0 0 0 0 0 0 0 0 0 0 0 0 0 0 0 0 0 0 0
0 0 0 0 0 0 0 0 0 0 0 0 0 0 -0 -0 0 -0 0 0 0 0 0 0 0 0 0 0 0 0 0 0 0 0 0 0 0 0 0 0 0 0 0 0
0 0 0 0 0 0 0 0 0 0 0 0 0 0 -0 -0 -0 0 0 0 0 0 0 0 0 0 0 0 0 0 0 0 0 0 0 0 0 0 0 0 0 0 0 0
0 0 0 0 0 0 0 0 -0 0 0 -0 0 0 0 0 0 0 0 0 0 0 0 0 0 0 0 0 0 0 0 0 0 0 0 0 0 0 0 0 0 0 0 0
0 0 0 0 0 0 0 0 0 0 0 0 0 0 0 0 0 0 0 0 0 0 0 0 0 0 0 0 0 0 0 0 0 0 0 0 0 0 0 0 0 0 0 0
0 0 0 0 0 0 0 0 0 0 -0 -0 0 0 0 0 0 0 0 0 0 0 0 0 0 0 0 0 0 0 0 0 0 0 0 0 0 0 0 0 0 0 0 0
0 0 0 0 0 0 0 0 0 0 0 0 0 0 0 0 0 0 0 0 0 0 0 0 0 0 0 0 0 0 0 0 0 0 0 0 0 0 0 0 0 0 0 0
0 0 0 0 0 0 0 0 0 0 0 0 -0 0 0 0 -0 0 0 0 0 0 0 0 0 0 0 0 0 0 0 0 0 0 0 0 0 0 0 0 0 0 0 0
0 0 0 0 0 0 0 0 0 0 0 0 0 0 0 0 -0 -0 0 0 0 0 -0 0 0 0 0 0 0 0 0 0 0 0 0 0 0 0 0 0 0 0 0 0
0 0 0 0 0 0 0 0 0 0 0 0 0 -0 0 0 -0 -0 -0 -0 -0 -0 -0 0 0 0 0 0 0 0 0 0 0 0 0 0 0 0 0 0 0 0 0 0
0 0 0 0 0 0 0 0 0 0 0 0 -0 0 -0 -0 0 -0 -0 -0 0 0 0 0 0 0 0 0 0 0 0 0 0 0 0 0 0 0 0 0 0 0 0 0
0 0 0 0 0 0 0 0 0 0 0 0 -0 0 -0 -0 0 0 0 0 0 0 0 0 0 -0 -0 0 0 0 0 0 0 0 0 0 0 0 0 0 0 0 0 0
0 0 0 0 0 0 0 0 0 0 0 0 0 -0 -0 -0 0 0 0 0 0 0 0 0 0 0 0 0 0 0 0 0 0 0 0 0 0 0 0 0 0 0 0 0
0 0 0 0 0 0 0 0 0 0 0 0 0 0 0 0 0 0 0 0 0 0 0 0 0 0 0 0 0 0 0 0 0 0 0 0 0 0 0 0 0 0 0 0
0 0 0 0 0 0 0 0 0 0 0 0 0 0 0 0 0 0 0 -0 -0 0 0 -0 0 0 0 0 0 0 0 0 0 0 0 0 0 0 0 0 0 0 0 0
0 0 0 0 0 0 0 0 0 0 0 0 0 0 0 0 0 -0 -0 -0 -0 -0 -0 -0 0 0 0 0 0 0 0 0 0 0 0 0 0 0 0 0 0 0 0 0
0 0 0 0 0 0 0 0 0 0 0 0 0 0 0 0 0 0 0 -0 0 -0 -0 0 0 0 0 0 0 0 0 0 0 0 0 0 0 0 0 0 0 0 0 0
0 0 0 0 0 0 0 0 0 0 0 0 0 0 0 0 0 0 -0 0 -0 -0 0 0 0 0 0 0 0 0 0 0 0 0 0 0 0 0 0 0 0 0 0 0
0 0 0 0 0 0 0 0 0 0 0 0 0 0 0 0 0 0 0 0 0 -0 0 0 0 0 0 0 0 0 0 0 0 0 0 0 0 0 0 0 0 0 0 0
0 0 0 0 0 0 0 0 0 0 0 0 0 0 0 0 0 0 0 0 0 0 -0 0 0 0 0 0 0 0 0 0 0 0 0 0 0 0 0 0 0 0 0 0
0 0 0 0 0 0 0 0 0 0 0 0 0 0 0 0 0 0 0 0 0 0 -0 0 0 0 0 -0 0 0 0 -0 -0 0 0 0 0 0 0 0 0 0 0 0
0 0 0 0 -0 -0 -0 0 0 0 0 0 0 0 0 0 0 0 0 0 0 -0 -0 0 -0 0 -0 -0 0 -0 -0 -0 -0 0 0 0 0 0 0 0 0 0 0 0
0 0 0 0 0 0 0 0 0 0 0 -0 -0 0 0 0 0 0 0 -0 -0 -0 -0 -0 -0 -0 -0 -0 -0 -0 -0 0 0 0 0 0 0 0 0 0 0 0 0 0
Wind_Speed_500mb
25 13 9 14 11 22 14 10 12 15 22 20 10 13 14 30 39 28 36 39 40 31 55 70 62 58 49 71 70 72 74 72 65 77 87 79 75 67 62 58 58 51 44 41
16 8 14 18 19 19 20 20 14 17 14 16 18 30 17 16 25 40 39 53 53 51 30 52 71 65 64 66 77 76 77 76 72 71 79 81 78 76 69 62 57 53 48 43
2 13 24 21 23 26 15 17 27 26 31 10 15 17 11 14 22 37 58 51 64 64 59 49 36 77 71 70 78 78 81 80 76 70 70 70 67 67 77 74 67 64 54 48
8 19 19 19 22 16 17 15 24 29 24 9 14 13 6 4 15 16 41 64 62 70 75 71 53 41 84 79 70 70 78 82 78 71 72 74 78 78 79 82 74 66 60 52
13 16 19 20 11 17 13 22 23 23 21 20 13 7 13 16 16 27 39 59 66 63 69 78 70 44 48 79 78 78 77 82 80 76 74 71 73 73 69 72 73 66 60 55
17 32 8 9 17 19 21 15 28 20 6 4 14 13 8 8 13 11 18 21 29 51 56 61 77 54 55 48 75 75 84 81 81 80 77 74 70 69 69 73 64 60 55 58
13 13 0 5 12 13 10 12 8 11 7 10 10 15 19 39 34 31 30 33 32 33 29 5 31 40 17 47 54 65 70 73 81 85 81 77 72 67 64 61 62 64 62 62
4 16 7 8 5 12 17 9 5 9 12 19 17 10 11 20 48 17 38 42 50 50 47 42 24 11 15 18 62 77 69 71 74 80 82 79 71 65 69 62 60 65 63 64
7 10 11 27 13 2 11 4 9 5 15 5 10 16 19 21 16 26 34 47 50 43 48 48 50 42 27 13 24 57 72 73 65 70 75 73 68 56 66 62 67 65 63 68
7 15 12 11 13 16 11 7 8 3 4 9 11 12 14 22 21 24 31 42 53 55 56 49 52 55 52 37 24 22 49 74 70 65 74 70 64 63 69 70 71 69 71 70
6 9 13 11 4 17 15 7 7 4 9 11 14 10 14 18 6 18 23 46 59 61 52 41 48 51 57 53 40 34 28 37 67 71 66 58 55 57 70 70 70 70 73 76
13 7 11 22 35 27 27 26 16 5 15 11 15 31 39 37 19 25 39 52 55 58 48 55 59 63 59 58 53 39 42 40 43 68 77 84 92 67 62 65 70 69 69 54
5 5 11 20 13 10 8 4 9 21 18 34 20 32 7 26 41 57 51 54 59 61 69 66 66 68 65 58 55 44 39 47 49 54 72 79 80 87 90 65 49 46 33 35
14 10 16 19 23 6 32 38 31 11 17 28 45 53 62 56 44 53 40 48 54 59 79 77 66 61 55 57 49 40 35 40 48 59 70 82 84 83 81 75 63 54 53 46
15 15 14 30 36 34 45 52 44 39 45 33 67 41 63 51 47 61 68 70 74 70 69 64 53 53 51 52 44 38 36 39 48 53 67 83 95 89 85 81 77 73 69 53
4 14 7 30 35 38 52 53 45 49 52 50 58 64 59 77 75 62 61 62 58 70 65 61 42 45 47 47 40 36 37 39 42 49 58 75 85 92 94 89 79 71 63 57
6 3 9 14 15 33 26 27 14 12 19 19 24 44 40 38 33 48 48 33 35 35 37 31 36 38 40 41 35 33 35 35 39 46 55 65 76 85 84 78 74 63 55 50
7 6 5 10 12 7 15 11 14 21 39 35 38 42 41 44 39 32 43 58 60 58 53 46 41 40 37 36 29 27 27 30 34 38 50 58 66 59 59 64 60 57 47 42
25 9 6 3 5 21 22 5 1 4 30 33 32 27 30 29 45 49 73 60 56 52 52 46 49 39 33 26 23 21 25 29 37 48 52 51 58 57 48 62 47 44 35 40
4 11 8 5 1 12 12 5 6 4 12 11 2 3 8 36 27 30 47 45 35 30 30 35 42 37 26 18 20 26 34 42 48 53 57 55 43 49 41 42 41 35 37 29
3 3 22 13 10 18 29 34 19 8 11 7 9 21 33 16 26 71 64 37 34 32 25 32 34 26 19 25 33 43 47 49 46 53 48 43 40 36 34 37 36 36 34 31
15 12 8 5 5 20 23 5 9 11 26 27 46 43 53 55 50 56 39 24 21 20 25 27 26 27 31 39 43 49 55 58 60 54 54 45 37 37 35 31 30 31 32 32
8 14 9 21 16 20 24 32 42 47 72 86 64 70 53 60 51 48 33 22 18 23 25 26 28 35 35 42 50 60 65 58 47 44 43 40 34 29 31 32 27 26 27 24
10 25 9 4 14 36 64 67 65 67 50 41 52 52 56 41 35 46 29 9 4 16 25 31 30 37 48 53 47 35 41 38 36 36 34 28 27 28 24 21 22 22 22 25
15 13 10 24 54 67 82 54 40 34 37 56 50 36 26 24 31 25 7 6 13 23 29 30 41 46 45 44 38 36 34 35 34 31 28 27 26 23 23 22 21 24 26 22
39 18 16 19 34 32 49 51 42 38 58 56 47 33 19 22 24 15 13 16 24 34 46 55 49 48 53 48 45 38 31 28 25 23 22 22 18 19 21 23 26 28 27 27
Wind_Direction_500mb
348 45 8 330 319 314 290 266 282 286 289 306 299 337 326 331 328 338 326 315 303 299 239 226 233 231 214 207 213 225 226 225 218 214 215 217 212 210 212 216 227 233 236 236
12 36 334 322 334 334 326 309 297 275 272 327 295 296 278 285 291 294 292 296 291 290 296 235 228 228 215 212 209 218 226 231 228 226 223 221 221 216 214 217 228 235 235 237
175 270 345 4 341 331 325 349 345 329 320 243 265 271 236 254 258 280 283 276 277 277 281 280 243 224 223 214 210 218 224 227 229 231 229 219 220 221 219 216 219 227 234 238
314 334 351 349 327 328 320 357 348 333 346 297 30 289 279 253 298 280 275 281 272 270 267 272 275 246 222 221 219 221 223 226 228 228 229 222 222 221 225 219 221 226 230 231
265 299 315 321 283 343 273 333 321 301 296 318 326 281 267 236 248 249 253 251 269 265 259 260 263 264 245 233 228 219 220 224 228 230 230 231 227 228 226 224 225 228 226 232
254 277 248 232 307 279 277 320 302 280 233 306 251 248 278 228 231 277 275 282 275 263 259 254 246 258 252 255 238 233 219 221 228 231 233 233 235 224 225 222 222 223 220 227
318 324 326 27 325 342 35 357 325 350 358 233 5 327 257 290 294 300 293 307 33 42 51 345 253 256 223 243 253 243 236 231 226 229 231 235 237 227 221 225 223 220 222 225
18 334 357 357 302 267 307 184 222 279 305 305 299 258 263 304 297 16 36 38 29 27 20 14 11 326 271 229 231 237 236 231 229 231 234 236 235 237 221 219 229 223 226 227
346 269 315 314 294 13 308 351 229 246 262 265 238 274 291 285 30 6 15 10 360 4 1 3 6 356 320 276 228 229 228 229 225 236 241 238 239 234 219 221 227 225 227 226
258 296 263 292 318 281 189 264 313 334 296 258 244 256 248 305 354 9 356 346 344 341 342 345 351 349 346 322 274 233 226 225 226 225 235 235 234 229 222 220 221 224 224 217
181 208 284 18 239 287 305 321 329 336 260 292 287 253 234 254 32 341 338 330 335 333 338 338 339 337 334 333 310 264 236 225 225 224 221 233 228 228 226 226 224 225 228 214
217 214 282 264 278 268 255 275 271 176 284 282 295 268 259 269 298 332 316 325 331 335 341 328 327 322 324 319 319 291 255 231 225 225 220 220 229 239 237 222 211 197 189 179
236 285 321 331 348 354 78 267 314 307 281 264 274 270 7 300 303 297 309 312 305 308 309 309 310 312 313 312 311 300 279 251 236 233 229 222 221 218 221 219 215 181 201 182
238 201 200 241 250 246 288 280 276 210 265 279 250 276 284 278 286 301 300 295 293 294 294 294 295 299 302 303 302 292 274 251 237 226 227 220 218 214 207 206 199 205 184 196
185 242 227 252 268 271 271 274 271 255 254 249 274 267 267 282 290 289 292 288 287 284 285 292 288 289 296 297 292 285 270 256 245 236 220 212 209 203 192 195 189 183 184 190
207 269 269 277 269 264 275 273 267 262 262 254 260 270 270 275 279 278 279 281 277 279 286 293 272 287 293 291 287 279 268 257 245 235 221 203 201 187 185 181 180 178 176 178
240 159 351 273 336 316 291 265 231 234 233 237 251 252 276 275 272 276 280 297 310 293 292 268 277 288 289 287 283 271 264 252 236 228 214 198 184 179 175 170 167 162 160 162
224 99 210 284 357 337 238 285 214 244 274 270 258 260 263 271 286 298 304 303 294 292 282 281 281 281 288 278 272 264 250 233 222 208 197 180 174 165 157 152 151 146 148 151
208 176 273 263 215 288 296 296 23 124 297 272 261 268 283 326 325 298 301 296 281 278 281 281 269 269 279 266 263 232 210 196 185 174 160 159 151 144 144 135 143 139 159 165
110 206 190 54 251 254 240 220 202 116 279 321 28 27 318 334 304 293 306 297 306 306 285 266 248 250 260 240 215 183 167 157 155 148 141 141 143 134 144 137 141 162 157 171
84 245 221 228 256 277 256 264 250 75 256 314 307 300 303 295 277 298 317 295 292 296 266 222 220 238 219 205 167 154 144 136 142 132 125 124 126 140 153 147 155 159 158 168
178 158 205 120 209 273 221 195 176 240 302 302 303 298 298 299 302 315 314 294 270 246 211 206 217 200 186 169 162 152 139 137 132 130 132 134 150 160 157 147 160 167 169 169
242 194 190 195 223 244 209 234 267 285 296 302 295 297 304 305 310 316 302 285 256 220 208 207 209 184 171 155 148 136 136 137 142 140 139 145 152 163 171 167 171 173 172 169
251 223 227 3 256 259 270 272 281 287 295 330 331 310 304 301 304 320 324 305 226 194 200 192 189 170 161 152 153 154 155 163 165 160 160 166 173 176 180 172 176 182 185 185
207 159 208 258 275 279 275 275 271 290 284 316 328 328 323 310 307 319 325 67 113 144 139 143 147 149 148 156 156 157 163 169 169 171 169 171 176 182 189 188 190 198 202 203
216 215 217 238 243 244 271 287 281 282 296 308 321 329 334 323 318 293 195 164 139 139 146 147 155 158 158 166 169 170 171 173 174 178 181 186 193 204 209 212 213 214 218 222
Wind_Speed_850mb
25 13 9 14 11 22 14 10 12 15 22 20 10 13 14 30 39 28 36 39 40 31 55 70 62 58 49 71 70 72 74 72 65 77 87 79 75 67 62 58 58 51 44 41
16 8 14 18 19 19 20 20 14 17 14 16 18 30 17 16 25 40 39 53 53 51 30 52 71 65 64 66 77 76 77 76 72 71 79 81 78 76 69 62 57 53 48 43
2 13 24 21 23 26 15 17 27 26 31 10 15 17 11 14 22 37 58 51 64 64 59 49 36 77 71 70 78 78 81 80 76 70 70 70 67 67 77 74 67 64 54 48
8 19 19 19 22 16 17 15 24 29 24 9 14 13 6 4 15 16 41 64 62 70 75 71 53 41 84 79 70 70 78 82 78 71 72 74 78 78 79 82 74 66 60 52
13 16 19 20 11 17 13 22 23 23 21 20 13 7 13 16 16 27 39 59 66 63 69 78 70 44 48 79 78 78 77 82 80 76 74 71 73 73 69 72 73 66 60 55
17 32 8 9 17 19 21 15 28 20 6 4 14 13 8 8 13 11 18 21 29 51 56 61 77 54 55 48 75 75 84 81 81 80 77 74 70 69 69 73 64 60 55 58
13 13 0 5 12 13 10 12 8 11 7 10 10 15 19 39 34 31 30 33 32 33 29 5 31 40 17 47 54 65 70 73 81 85 81 77 72 67 64 61 62 64 62 62
4 16 7 8 5 12 17 9 5 9 12 19 17 10 11 20 48 17 38 42 50 50 47 42 24 11 15 18 62 77 69 71 74 80 82 79 71 65 69 62 60 65 63 64
7 10 11 27 13 2 11 4 9 5 15 5 10 16 19 21 16 26 34 47 50 43 48 48 50 42 27 13 24 57 72 73 65 70 75 73 68 56 66 62 67 65 63 68
7 15 12 11 13 16 11 7 8 3 4 9 11 12 14 22 21 24 31 42 53 55 56 49 52 55 52 37 24 22 49 74 70 65 74 70 64 63 69 70 71 69 71 70
6 9 13 11 4 17 15 7 7 4 9 11 14 10 14 18 6 18 23 46 59 61 52 41 48 51 57 53 40 34 28 37 67 71 66 58 55 57 70 70 70 70 73 76
13 7 11 22 35 27 27 26 16 5 15 11 15 31 39 37 19 25 39 52 55 58 48 55 59 63 59 58 53 39 42 40 43 68 77 84 92 67 62 65 70 69 69 54
5 5 11 20 13 10 8 4 9 21 18 34 20 32 7 26 41 57 51 54 59 61 69 66 66 68 65 58 55 44 39 47 49 54 72 79 80 87 90 65 49 46 33 35
14 10 16 19 23 6 32 38 31 11 17 28 45 53 62 56 44 53 40 48 54 59 79 77 66 61 55 57 49 40 35 40 48 59 70 82 84 83 81 75 63 54 53 46
15 15 14 30 36 34 45 52 44 39 45 33 67 41 63 51 47 61 68 70 74 70 69 64 53 53 51 52 44 38 36 39 48 53 67 83 95 89 85 81 77 73 69 53
4 14 7 30 35 38 52 53 45 49 52 50 58 64 59 77 75 62 61 62 58 70 65 61 42 45 47 47 40 36 37 39 42 49 58 75 85 92 94 89 79 71 63 57
6 3 9 14 15 33 26 27 14 12 19 19 24 44 40 38 33 48 48 33 35 35 37 31 36 38 40 41 35 33 35 35 39 46 55 65 76 85 84 78 74 63 55 50
7 6 5 10 12 7 15 11 14 21 39 35 38 42 41 44 39 32 43 58 60 58 53 46 41 40 37 36 29 27 27 30 34 38 50 58 66 59 59 64 60 57 47 42
25 9 6 3 5 21 22 5 1 4 30 33 32 27 30 29 45 49 73 60 56 52 52 46 49 39 33 26 23 21 25 29 37 48 52 51 58 57 48 62 47 44 35 40
4 11 8 5 1 12 12 5 6 4 12 11 2 3 8 36 27 30 47 45 35 30 30 35 42 37 26 18 20 26 34 42 48 53 57 55 43 49 41 42 41 35 37 29
3 3 22 13 10 18 29 34 19 8 11 7 9 21 33 16 26 71 64 37 34 32 25 32 34 26 19 25 33 43 47 49 46 53 48 43 40 36 34 37 36 36 34 31
15 12 8 5 5 20 23 5 9 11 26 27 46 43 53 55 50 56 39 24 21 20 25 27 26 27 31 39 43 49 55 58 60 54 54 45 37 37 35 31 30 31 32 32
8 14 9 21 16 20 24 32 42 47 72 86 64 70 53 60 51 48 33 22 18 23 25 26 28 35 35 42 50 60 65 58 47 44 43 40 34 29 31 32 27 26 27 24
10 25 9 4 14 36 64 67 65 67 50 41 52 52 56 41 35 46 29 9 4 16 25 31 30 37 48 53 47 35 41 38 36 36 34 28 27 28 24 21 22 22 22 25
15 13 10 24 54 67 82 54 40 34 37 56 50 36 26 24 31 25 7 6 13 23 29 30 41 46 45 44 38 36 34 35 34 31 28 27 26 23 23 22 21 24 26 22
39 18 16 19 34 32 49 51 42 38 58 56 47 33 19 22 24 15 13 16 24 34 46 55 49 48 53 48 45 38 31 28 25 23 22 22 18 19 21 23 26 28 27 27
Wind_Direction_850mb
348 45 8 330 319 314 290 266 282 286 289 306 299 337 326 331 328 338 326 315 303 299 239 226 233 231 214 207 213 225 226 225 218 214 215 217 212 210 212 216 227 233 236 236
12 36 334 322 334 334 326 309 297 275 272 327 295 296 278 285 291 294 292 296 291 290 296 235 228 228 215 212 209 218 226 231 228 226 223 221 221 216 214 217 228 235 235 237
175 270 345 4 341 331 325 349 345 329 320 243 265 271 236 254 258 280 283 276 277 277 281 280 243 224 223 214 210 218 224 227 229 231 229 219 220 221 219 216 219 227 234 238
314 334 351 349 327 328 320 357 348 333 346 297 30 289 279 253 298 280 275 281 272 270 267 272 275 246 222 221 219 221 223 226 228 228 229 222 222 221 225 219 221 226 230 231
265 299 315 321 283 343 273 333 321 301 296 318 326 281 267 236 248 249 253 251 269 265 259 260 263 264 245 233 228 219 220 224 228 230 230 231 227 228 226 224 225 228 226 232
254 277 248 232 307 279 277 320 302 280 233 306 251 248 278 228 231 277 275 282 275 263 259 254 246 258 252 255 238 233 219 221 228 231 233 233 235 224 225 222 222 223 220 227
318 324 326 27 325 342 35 357 325 350 358 233 5 327 257 290 294 300 293 307 33 42 51 345 253 256 223 243 253 243 236 231 226 229 231 235 237 227 221 225 223 220 222 225
18 334 357 357 302 267 307 184 222 279 305 305 299 258 263 304 297 16 36 38 29 27 20 14 11 326 271 229 231 237 236 231 229 231 234 236 235 237 221 219 229 223 226 227
346 269 315 314 294 13 308 351 229 246 262 265 238 274 291 285 30 6 15 10 360 4 1 3 6 356 320 276 228 229 228 229 225 236 241 238 239 234 219 221 227 225 227 226
258 296 263 292 318 281 189 264 313 334 296 258 244 256 248 305 354 9 356 346 344 341 342 345 351 349 346 322 274 233 226 225 226 225 235 235 234 229 222 220 221 224 224 217
181 208 284 18 239 287 305 321 329 336 260 292 287 253 234 254 32 341 338 330 335 333 338 338 339 337 334 333 310 264 236 225 225 224 221 233 228 228 226 226 224 225 228 214
217 214 282 264 278 268 255 275 271 176 284 282 295 268 259 269 298 332 316 325 331 335 341 328 327 322 324 319 319 291 255 231 225 225 220 220 229 239 237 222 211 197 189 179
236 285 321 331 348 354 78 267 314 307 281 264 274 270 7 300 303 297 309 312 305 308 309 309 310 312 313 312 311 300 279 251 236 233 229 222 221 218 221 219 215 181 201 182
238 201 200 241 250 246 288 280 276 210 265 279 250 276 284 278 286 301 300 295 293 294 294 294 295 299 302 303 302 292 274 251 237 226 227 220 218 214 207 206 199 205 184 196
185 242 227 252 268 271 271 274 271 255 254 249 274 267 267 282 290 289 292 288 287 284 285 292 288 289 296 297 292 285 270 256 245 236 220 212 209 203 192 195 189 183 184 190
207 269 269 277 269 264 275 273 267 262 262 254 260 270 270 275 279 278 279 281 277 279 286 293 272 287 293 291 287 279 268 257 245 235 221 203 201 187 185 181 180 178 176 178
240 159 351 273 336 316 291 265 231 234 233 237 251 252 276 275 272 276 280 297 310 293 292 268 277 288 289 287 283 271 264 252 236 228 214 198 184 179 175 170 167 162 160 162
224 99 210 284 357 337 238 285 214 244 274 270 258 260 263 271 286 298 304 303 294 292 282 281 281 281 288 278 272 264 250 233 222 208 197 180 174 165 157 152 151 146 148 151
208 176 273 263 215 288 296 296 23 124 297 272 261 268 283 326 325 298 301 296 281 278 281 281 269 269 279 266 263 232 210 196 185 174 160 159 151 144 144 135 143 139 159 165
110 206 190 54 251 254 240 220 202 116 279 321 28 27 318 334 304 293 306 297 306 306 285 266 248 250 260 240 215 183 167 157 155 148 141 141 143 134 144 137 141 162 157 171
84 245 221 228 256 277 256 264 250 75 256 314 307 300 303 295 277 298 317 295 292 296 266 222 220 238 219 205 167 154 144 136 142 132 125 124 126 140 153 147 155 159 158 168
178 158 205 120 209 273 221 195 176 240 302 302 303 298 298 299 302 315 314 294 270 246 211 206 217 200 186 169 162 152 139 137 132 130 132 134 150 160 157 147 160 167 169 169
242 194 190 195 223 244 209 234 267 285 296 302 295 297 304 305 310 316 302 285 256 220 208 207 209 184 171 155 148 136 136 137 142 140 139 145 152 163 171 167 171 173 172 169
251 223 227 3 256 259 270 272 281 287 295 330 331 310 304 301 304 320 324 305 226 194 200 192 189 170 161 152 153 154 155 163 165 160 160 166 173 176 180 172 176 182 185 185
207 159 208 258 275 279 275 275 271 290 284 316 328 328 323 310 307 319 325 67 113 144 139 143 147 149 148 156 156 157 163 169 169 171 169 171 176 182 189 188 190 198 202 203
216 215 217 238 243 244 271 287 281 282 296 308 321 329 334 323 318 293 195 164 139 139 146 147 155 158 158 166 169 170 171 173 174 178 181 186 193 204 209 212 213 214 218 222